Overview Statistics Trail Chart Weather Telemetry Raw packets
 

This is the latest recevied weather packets stored in our database for station/object IU5GBO-13. If no packets are shown the sender has not sent any weather packets the latest 10 day(s).

<< 29 30 31 32 33 34 35 >>
Time Temp. Humidity Pressure Rain* Wind** Luminosity Snow
1777626974 19.44° C 25% 1025.1 hPa - - - -
1777626374 18.89° C 25% 1025.3 hPa - - - -
1777625774 18.89° C 26% 1025.3 hPa - - - -
1777625174 19.44° C 25% 1025.4 hPa - - - -
1777624574 18.89° C 25% 1025.4 hPa - - - -
1777623974 18.33° C 25% 1025.4 hPa - - - -
1777623374 18.33° C 26% 1025.6 hPa - - - -
1777622774 18.33° C 27% 1025.3 hPa - - - -
1777622174 18.33° C 27% 1025.3 hPa - - - -
1777621574 17.78° C 27% 1025.4 hPa - - - -
1777620974 17.78° C 26% 1025.4 hPa - - - -
1777620374 17.78° C 26% 1025.3 hPa - - - -
1777619774 16.67° C 27% 1025.3 hPa - - - -
1777619174 16.67° C 27% 1025.4 hPa - - - -
1777618574 16.67° C 27% 1025.3 hPa - - - -
1777617974 16.11° C 29% 1025.3 hPa - - - -
1777617374 15.56° C 29% 1025.3 hPa - - - -
1777616774 15° C 30% 1025.3 hPa - - - -
1777616174 14.44° C 31% 1025.3 hPa - - - -
1777615574 13.89° C 32% 1025.3 hPa - - - -
1777614974 13.89° C 31% 1025.3 hPa - - - -
1777614374 12.78° C 32% 1025.3 hPa - - - -
1777613774 12.78° C 33% 1025.1 hPa - - - -
1777613174 12.78° C 33% 1025.1 hPa - - - -
1777612574 12.22° C 32% 1025 hPa - - - -

* Rain since midnight (hover to see other rain measurements)
** Current wind speed in m/s (hover to see current wind gust speed)